Time,TemperatureF,DewpointF,PressureIn,WindDirection,WindDirectionDegrees,WindSpeedMPH,WindSpeedGustMPH,Humidity,HourlyPrecipIn,Conditions,Clouds,dailyrainin,SoftwareType,DateUTC
2013-07-12 00:00:00,78.1,68.7,30.26,North,0,0.0,0.0,73,0.00,CLR,SCT,0.00,WeatherDisplay:10.37,2013-07-12 04:00:00,
2013-07-12 00:01:00,81.1,62.4,30.25,North,0,0.0,0.0,53,0.00,CLR,SCT,0.00,WeatherDisplay:10.37,2013-07-12 04:01:00,
2013-07-12 00:02:00,81.1,62.4,30.25,North,0,0.0,0.0,53,0.00,CLR,SCT,0.00,WeatherDisplay:10.37,2013-07-12 04:02:00,
2013-07-12 00:08:00,81.0,62.2,30.25,North,0,0.0,0.0,53,0.00,CLR,SCT,0.00,WeatherDisplay:10.37,2013-07-12 04:08:00,
2013-07-12 00:13:00,81.0,62.2,30.25,North,0,0.0,0.0,53,0.00,CLR,SCT,0.00,WeatherDisplay:10.37,2013-07-12 04:13:00,
2013-07-12 00:15:00,78.1,68.7,30.26,North,0,0.0,0.0,73,0.00,CLR,SCT,0.00,WeatherDisplay:10.37,2013-07-12 04:15:00,
2013-07-12 00:18:00,81.0,62.7,30.24,North,0,0.0,0.0,54,0.00,CLR,SCT,0.00,WeatherDisplay:10.37,2013-07-12 04:18:00,
2013-07-12 00:23:00,80.8,62.6,30.24,North,0,0.0,0.0,54,0.00,CLR,SCT,0.00,WeatherDisplay:10.37,2013-07-12 04:23:00,
2013-07-12 00:29:00,80.8,62.6,30.24,North,0,0.0,0.0,54,0.00,CLR,SCT,0.00,WeatherDisplay:10.37,2013-07-12 04:29:00,
2013-07-12 00:30:00,78.1,68.7,30.26,North,0,0.0,0.0,73,0.00,CLR,SCT,0.00,WeatherDisplay:10.37,2013-07-12 04:30:00,
2013-07-12 00:34:00,80.6,62.4,30.24,North,0,0.0,0.0,54,0.00,CLR,SCT,0.00,WeatherDisplay:10.37,2013-07-12 04:34:00,
2013-07-12 00:39:00,80.6,62.4,30.23,North,0,0.0,0.0,54,0.00,CLR,SCT,0.00,WeatherDisplay:10.37,2013-07-12 04:39:00,
2013-07-12 00:45:00,80.6,62.4,30.23,North,0,0.0,0.0,54,0.00,CLR,SCT,0.00,WeatherDisplay:10.37,2013-07-12 04:45:00,
2013-07-12 00:50:00,80.4,62.8,30.23,North,0,0.0,0.0,55,0.00,CLR,SCT,0.00,WeatherDisplay:10.37,2013-07-12 04:50:00,
2013-07-12 00:55:00,80.2,62.6,30.23,North,0,0.0,0.0,55,0.00,CLR,SCT,0.00,WeatherDisplay:10.37,2013-07-12 04:55:00,
2013-07-12 01:00:00,80.4,62.8,30.23,North,0,0.0,0.0,55,0.00,CLR,SCT,0.00,WeatherDisplay:10.37,2013-07-12 05:00:00,
2013-07-12 01:05:00,80.4,62.8,30.23,North,0,0.0,0.0,55,0.00,CLR,SCT,0.00,WeatherDisplay:10.37,2013-07-12 05:05:00,
2013-07-12 01:10:00,80.4,62.8,30.23,North,0,0.0,0.0,55,0.00,CLR,SCT,0.00,WeatherDisplay:10.37,2013-07-12 05:10:00,
2013-07-12 01:15:00,80.4,62.8,30.21,North,0,0.0,0.0,55,0.00,CLR,SCT,0.00,WeatherDisplay:10.37,2013-07-12 05:15:00,
2013-07-12 01:20:00,80.4,62.8,30.21,North,0,0.0,0.0,55,0.00,CLR,SCT,0.00,WeatherDisplay:10.37,2013-07-12 05:20:00,
2013-07-12 01:25:00,80.4,62.2,30.21,North,0,0.0,0.0,54,0.00,CLR,SCT,0.00,WeatherDisplay:10.37,2013-07-12 05:25:00,
2013-07-12 01:30:00,80.1,62.4,30.21,North,0,0.0,0.0,55,0.00,CLR,SCT,0.00,WeatherDisplay:10.37,2013-07-12 05:30:00,
2013-07-12 01:35:00,80.2,62.6,30.20,North,0,0.0,0.0,55,0.00,CLR,SCT,0.00,WeatherDisplay:10.37,2013-07-12 05:35:00,
2013-07-12 01:40:00,80.2,62.6,30.20,North,0,0.0,0.0,55,0.00,CLR,SCT,0.00,WeatherDisplay:10.37,2013-07-12 05:40:00,
2013-07-12 01:45:00,80.1,62.4,30.20,North,0,0.0,0.0,55,0.00,CLR,SCT,0.00,WeatherDisplay:10.37,2013-07-12 05:45:00,
2013-07-12 01:50:00,79.9,62.8,30.20,North,0,0.0,0.0,56,0.00,CLR,SCT,0.00,WeatherDisplay:10.37,2013-07-12 05:50:00,
2013-07-12 01:55:00,80.1,62.9,30.19,North,0,0.0,0.0,56,0.00,CLR,SCT,0.00,WeatherDisplay:10.37,2013-07-12 05:55:00,
2013-07-12 02:00:00,80.1,62.4,30.19,North,0,0.0,0.0,55,0.00,CLR,SCT,0.00,WeatherDisplay:10.37,2013-07-12 06:00:00,
2013-07-12 02:05:00,80.1,62.4,30.19,North,0,0.0,0.0,55,0.00,CLR,SCT,0.00,WeatherDisplay:10.37,2013-07-12 06:05:00,
2013-07-12 02:10:00,79.9,62.8,30.19,North,0,0.0,0.0,56,0.00,CLR,SCT,0.00,WeatherDisplay:10.37,2013-07-12 06:10:00,
2013-07-12 02:15:00,79.9,62.8,30.20,North,0,0.0,0.0,56,0.00,CLR,SCT,0.00,WeatherDisplay:10.37,2013-07-12 06:15:00,
2013-07-12 02:20:00,79.7,62.6,30.20,North,0,0.0,0.0,56,0.00,CLR,SCT,0.00,WeatherDisplay:10.37,2013-07-12 06:20:00,
2013-07-12 02:25:00,79.7,62.6,30.20,North,0,0.0,0.0,56,0.00,CLR,SCT,0.00,WeatherDisplay:10.37,2013-07-12 06:25:00,
2013-07-12 02:30:00,78.1,70.7,30.23,North,0,0.0,0.0,78,0.00,CLR,SCT,0.00,WeatherDisplay:10.37,2013-07-12 06:30:00,
2013-07-12 02:31:00,79.7,63.1,30.20,North,0,0.0,0.0,57,0.00,CLR,SCT,0.00,WeatherDisplay:10.37,2013-07-12 06:31:00,
2013-07-12 02:35:00,79.7,62.1,30.19,North,0,0.0,0.0,55,0.00,CLR,SCT,0.00,WeatherDisplay:10.37,2013-07-12 06:35:00,
2013-07-12 02:41:00,79.7,62.1,30.19,North,0,0.0,0.0,55,0.00,CLR,SCT,0.00,WeatherDisplay:10.37,2013-07-12 06:41:00,
2013-07-12 02:45:00,82.4,70.3,30.25,North,0,0.0,0.0,67,0.00,CLR,SCT,0.00,WeatherDisplay:10.37,2013-07-12 06:45:00,
2013-07-12 02:46:00,79.9,62.8,30.19,North,0,0.0,0.0,56,0.00,CLR,SCT,0.00,WeatherDisplay:10.37,2013-07-12 06:46:00,
2013-07-12 02:51:00,79.7,63.1,30.19,North,0,0.0,0.0,57,0.00,CLR,SCT,0.00,WeatherDisplay:10.37,2013-07-12 06:51:00,
2013-07-12 02:56:00,79.7,63.1,30.18,North,0,0.0,0.0,57,0.00,CLR,SCT,0.00,WeatherDisplay:10.37,2013-07-12 06:56:00,
2013-07-12 03:00:00,82.4,70.3,30.25,North,0,0.0,0.0,67,0.00,CLR,SCT,0.00,WeatherDisplay:10.37,2013-07-12 07:00:00,
2013-07-12 03:01:00,79.7,63.1,30.18,North,0,0.0,0.0,57,0.00,CLR,SCT,0.00,WeatherDisplay:10.37,2013-07-12 07:01:00,
2013-07-12 03:06:00,79.7,63.1,30.18,North,0,0.0,0.0,57,0.00,CLR,SCT,0.00,WeatherDisplay:10.37,2013-07-12 07:06:00,
2013-07-12 03:11:00,79.7,63.1,30.18,North,0,0.0,0.0,57,0.00,CLR,SCT,0.00,WeatherDisplay:10.37,2013-07-12 07:11:00,
2013-07-12 03:15:00,82.4,70.3,30.25,North,0,0.0,0.0,67,0.00,CLR,SCT,0.00,WeatherDisplay:10.37,2013-07-12 07:15:00,
2013-07-12 03:16:00,79.7,63.6,30.19,North,0,0.0,0.0,58,0.00,CLR,SCT,0.00,WeatherDisplay:10.37,2013-07-12 07:16:00,
2013-07-12 03:21:00,79.7,63.6,30.19,North,0,0.0,0.0,58,0.00,CLR,SCT,0.00,WeatherDisplay:10.37,2013-07-12 07:21:00,
2013-07-12 03:26:00,79.7,63.1,30.19,North,0,0.0,0.0,57,0.00,CLR,SCT,0.00,WeatherDisplay:10.37,2013-07-12 07:26:00,
2013-07-12 03:30:00,82.4,70.3,30.25,North,0,0.0,0.0,67,0.00,CLR,SCT,0.00,WeatherDisplay:10.37,2013-07-12 07:30:00,
2013-07-12 03:31:00,79.5,62.9,30.19,North,0,0.0,0.0,57,0.00,CLR,SCT,0.00,WeatherDisplay:10.37,2013-07-12 07:31:00,
2013-07-12 03:36:00,79.5,63.4,30.18,North,0,0.0,0.0,58,0.00,CLR,SCT,0.00,WeatherDisplay:10.37,2013-07-12 07:36:00,
2013-07-12 03:41:00,79.5,63.4,30.18,North,0,0.0,0.0,58,0.00,CLR,SCT,0.00,WeatherDisplay:10.37,2013-07-12 07:41:00,
2013-07-12 03:45:00,82.9,66.6,30.23,North,0,0.0,0.0,58,0.00,CLR,SCT,0.00,WeatherDisplay:10.37,2013-07-12 07:45:00,
2013-07-12 03:46:00,79.5,62.9,30.18,North,0,0.0,0.0,57,0.00,CLR,SCT,0.00,WeatherDisplay:10.37,2013-07-12 07:46:00,
2013-07-12 03:52:00,79.5,63.4,30.18,North,0,0.0,0.0,58,0.00,CLR,SCT,0.00,WeatherDisplay:10.37,2013-07-12 07:52:00,
2013-07-12 03:57:00,79.5,63.9,30.19,North,0,0.0,0.0,59,0.00,CLR,SCT,0.00,WeatherDisplay:10.37,2013-07-12 07:57:00,
2013-07-12 04:00:00,82.9,66.6,30.23,North,0,0.0,0.0,58,0.00,CLR,SCT,0.00,WeatherDisplay:10.37,2013-07-12 08:00:00,
2013-07-12 04:02:00,79.5,63.4,30.19,North,0,0.0,0.0,58,0.00,CLR,SCT,0.00,WeatherDisplay:10.37,2013-07-12 08:02:00,
2013-07-12 04:07:00,79.5,63.4,30.19,North,0,0.0,0.0,58,0.00,CLR,SCT,0.00,WeatherDisplay:10.37,2013-07-12 08:07:00,
2013-07-12 04:12:00,79.5,63.9,30.19,North,0,0.0,0.0,59,0.00,CLR,SCT,0.00,WeatherDisplay:10.37,2013-07-12 08:12:00,
2013-07-12 04:15:00,82.9,66.6,30.23,North,0,0.0,0.0,58,0.00,CLR,SCT,0.00,WeatherDisplay:10.37,2013-07-12 08:15:00,
2013-07-12 04:17:00,79.3,63.8,30.18,North,0,0.0,0.0,59,0.00,CLR,SCT,0.00,WeatherDisplay:10.37,2013-07-12 08:17:00,
2013-07-12 04:22:00,79.3,63.8,30.18,North,0,0.0,0.0,59,0.00,CLR,SCT,0.00,WeatherDisplay:10.37,2013-07-12 08:22:00,
2013-07-12 04:27:00,79.3,63.8,30.18,North,0,0.0,0.0,59,0.00,CLR,SCT,0.00,WeatherDisplay:10.37,2013-07-12 08:27:00,
2013-07-12 04:30:00,82.9,66.6,30.23,North,0,0.0,0.0,58,0.00,CLR,SCT,0.00,WeatherDisplay:10.37,2013-07-12 08:30:00,
2013-07-12 04:32:00,79.3,63.8,30.18,North,0,0.0,0.0,59,0.00,CLR,SCT,0.00,WeatherDisplay:10.37,2013-07-12 08:32:00,
2013-07-12 04:37:00,79.5,63.9,30.18,North,0,0.0,0.0,59,0.00,CLR,SCT,0.00,WeatherDisplay:10.37,2013-07-12 08:37:00,
2013-07-12 04:43:00,79.5,63.4,30.18,North,0,0.0,0.0,58,0.00,CLR,SCT,0.00,WeatherDisplay:10.37,2013-07-12 08:43:00,
2013-07-12 04:45:00,86.7,63.5,30.23,North,0,0.0,0.0,46,0.00,CLR,SCT,0.00,WeatherDisplay:10.37,2013-07-12 08:45:00,
2013-07-12 04:48:00,79.3,63.8,30.18,North,0,0.0,0.0,59,0.00,CLR,SCT,0.00,WeatherDisplay:10.37,2013-07-12 08:48:00,
2013-07-12 04:53:00,79.3,64.2,30.18,North,0,0.0,0.0,60,0.00,CLR,SCT,0.00,WeatherDisplay:10.37,2013-07-12 08:53:00,
2013-07-12 04:58:00,79.3,64.2,30.17,North,0,0.0,0.0,60,0.00,CLR,SCT,0.00,WeatherDisplay:10.37,2013-07-12 08:58:00,
2013-07-12 05:00:00,86.7,63.5,30.23,North,0,0.0,0.0,46,0.00,CLR,SCT,0.00,WeatherDisplay:10.37,2013-07-12 09:00:00,
2013-07-12 05:03:00,79.3,63.8,30.17,North,0,0.0,0.0,59,0.00,CLR,SCT,0.00,WeatherDisplay:10.37,2013-07-12 09:03:00,
2013-07-12 05:08:00,79.5,63.4,30.17,North,0,0.0,0.0,58,0.00,CLR,SCT,0.00,WeatherDisplay:10.37,2013-07-12 09:08:00,
2013-07-12 05:13:00,79.5,63.4,30.17,North,0,0.0,0.0,58,0.00,CLR,SCT,0.00,WeatherDisplay:10.37,2013-07-12 09:13:00,
2013-07-12 05:15:00,86.7,63.5,30.23,North,0,0.0,0.0,46,0.00,CLR,SCT,0.00,WeatherDisplay:10.37,2013-07-12 09:15:00,
2013-07-12 05:18:00,79.5,63.9,30.19,North,0,0.0,0.0,59,0.00,CLR,SCT,0.00,WeatherDisplay:10.37,2013-07-12 09:18:00,
2013-07-12 05:23:00,79.3,63.3,30.19,North,0,0.0,0.0,58,0.00,CLR,SCT,0.00,WeatherDisplay:10.37,2013-07-12 09:23:00,
2013-07-12 05:28:00,79.3,62.8,30.19,North,0,0.0,0.0,57,0.00,CLR,SCT,0.00,WeatherDisplay:10.37,2013-07-12 09:28:00,
2013-07-12 05:30:00,86.7,63.5,30.23,North,0,0.0,0.0,46,0.00,CLR,SCT,0.00,WeatherDisplay:10.37,2013-07-12 09:30:00,
2013-07-12 05:33:00,79.3,63.3,30.19,North,0,0.0,0.0,58,0.00,CLR,SCT,0.00,WeatherDisplay:10.37,2013-07-12 09:33:00,
2013-07-12 05:39:00,79.2,63.6,30.18,North,0,0.0,0.0,59,0.00,CLR,SCT,0.00,WeatherDisplay:10.37,2013-07-12 09:39:00,
2013-07-12 05:44:00,79.2,63.1,30.18,North,0,0.0,0.0,58,0.00,CLR,SCT,0.00,WeatherDisplay:10.37,2013-07-12 09:44:00,
2013-07-12 05:45:00,87.8,61.9,30.22,North,0,0.0,0.0,42,0.00,CLR,SCT,0.00,WeatherDisplay:10.37,2013-07-12 09:45:00,
2013-07-12 05:49:00,79.2,63.1,30.18,North,0,0.0,0.0,58,0.00,CLR,SCT,0.00,WeatherDisplay:10.37,2013-07-12 09:49:00,
2013-07-12 05:54:00,79.2,63.6,30.18,North,0,0.0,0.0,59,0.00,CLR,SCT,0.00,WeatherDisplay:10.37,2013-07-12 09:54:00,
2013-07-12 05:59:00,79.2,64.1,30.18,North,0,0.0,0.0,60,0.00,CLR,SCT,0.00,WeatherDisplay:10.37,2013-07-12 09:59:00,
2013-07-12 06:00:00,87.8,61.9,30.22,North,0,0.0,0.0,42,0.00,CLR,SCT,0.00,WeatherDisplay:10.37,2013-07-12 10:00:00,
2013-07-12 06:04:00,79.2,64.1,30.18,North,0,0.0,0.0,60,0.00,CLR,SCT,0.00,WeatherDisplay:10.37,2013-07-12 10:04:00,
2013-07-12 06:09:00,79.2,63.6,30.18,North,0,0.0,0.0,59,0.00,CLR,SCT,0.00,WeatherDisplay:10.37,2013-07-12 10:09:00,
2013-07-12 06:14:00,79.2,63.6,30.18,North,0,0.0,0.0,59,0.00,CLR,SCT,0.00,WeatherDisplay:10.37,2013-07-12 10:14:00,
2013-07-12 06:15:00,87.8,61.9,30.22,North,0,0.0,0.0,42,0.00,CLR,SCT,0.00,WeatherDisplay:10.37,2013-07-12 10:15:00,
2013-07-12 06:19:00,79.2,63.6,30.18,North,0,0.0,0.0,59,0.00,CLR,SCT,0.00,WeatherDisplay:10.37,2013-07-12 10:19:00,
2013-07-12 06:24:00,79.2,63.6,30.18,North,0,0.0,0.0,59,0.00,CLR,SCT,0.00,WeatherDisplay:10.37,2013-07-12 10:24:00,
2013-07-12 06:29:00,79.2,63.6,30.18,North,0,0.0,0.0,59,0.00,CLR,SCT,0.00,WeatherDisplay:10.37,2013-07-12 10:29:00,
2013-07-12 06:30:00,87.8,61.9,30.22,North,0,0.0,0.0,42,0.00,CLR,SCT,0.00,WeatherDisplay:10.37,2013-07-12 10:30:00,
2013-07-12 06:34:00,79.0,63.4,30.18,North,0,0.0,0.0,59,0.00,CLR,SCT,0.00,WeatherDisplay:10.37,2013-07-12 10:34:00,
2013-07-12 06:39:00,79.0,63.4,30.18,North,0,0.0,0.0,59,0.00,CLR,SCT,0.00,WeatherDisplay:10.37,2013-07-12 10:39:00,
2013-07-12 06:44:00,79.0,63.4,30.18,North,0,0.0,0.0,59,0.00,CLR,SCT,0.00,WeatherDisplay:10.37,2013-07-12 10:44:00,
2013-07-12 06:45:00,80.6,59.7,30.19,North,0,0.0,0.0,49,0.00,CLR,SCT,0.00,WeatherDisplay:10.37,2013-07-12 10:45:00,
2013-07-12 06:49:00,79.0,63.4,30.18,North,0,0.0,0.0,59,0.00,CLR,SCT,0.00,WeatherDisplay:10.37,2013-07-12 10:49:00,
2013-07-12 06:54:00,79.0,63.4,30.18,North,0,0.0,0.0,59,0.00,CLR,SCT,0.00,WeatherDisplay:10.37,2013-07-12 10:54:00,
2013-07-12 06:59:00,79.0,63.4,30.20,North,0,0.0,0.0,59,0.00,CLR,SCT,0.00,WeatherDisplay:10.37,2013-07-12 10:59:00,
2013-07-12 07:00:00,80.6,59.7,30.19,North,0,0.0,0.0,49,0.00,CLR,SCT,0.00,WeatherDisplay:10.37,2013-07-12 11:00:00,
2013-07-12 07:04:00,79.0,63.4,30.20,North,0,0.0,0.0,59,0.00,CLR,SCT,0.00,WeatherDisplay:10.37,2013-07-12 11:04:00,
2013-07-12 07:09:00,79.2,63.6,30.20,North,0,0.0,0.0,59,0.00,CLR,SCT,0.00,WeatherDisplay:10.37,2013-07-12 11:09:00,
2013-07-12 07:14:00,79.2,63.6,30.20,North,0,0.0,0.0,59,0.00,CLR,SCT,0.00,WeatherDisplay:10.37,2013-07-12 11:14:00,
2013-07-12 07:15:00,80.6,59.7,30.19,North,0,0.0,0.0,49,0.00,CLR,SCT,0.00,WeatherDisplay:10.37,2013-07-12 11:15:00,
2013-07-12 07:19:00,79.3,63.8,30.20,North,0,0.0,0.0,59,0.00,CLR,SCT,0.00,WeatherDisplay:10.37,2013-07-12 11:19:00,
2013-07-12 07:24:00,79.5,64.4,30.20,North,0,0.0,0.0,60,0.00,CLR,SCT,0.00,WeatherDisplay:10.37,2013-07-12 11:24:00,
2013-07-12 07:29:00,79.7,64.1,30.20,North,0,0.0,0.0,59,0.00,CLR,SCT,0.00,WeatherDisplay:10.37,2013-07-12 11:29:00,
2013-07-12 07:30:00,80.6,59.7,30.19,North,0,0.0,0.0,49,0.00,CLR,SCT,0.00,WeatherDisplay:10.37,2013-07-12 11:30:00,
2013-07-12 07:34:00,79.9,64.8,30.20,North,0,0.0,0.0,60,0.00,CLR,SCT,0.00,WeatherDisplay:10.37,2013-07-12 11:34:00,
2013-07-12 07:39:00,80.1,64.9,30.21,North,0,0.0,0.0,60,0.00,CLR,SCT,0.00,WeatherDisplay:10.37,2013-07-12 11:39:00,
2013-07-12 07:44:00,80.1,64.4,30.21,North,0,0.0,0.0,59,0.00,CLR,SCT,0.00,WeatherDisplay:10.37,2013-07-12 11:44:00,
2013-07-12 07:45:00,80.8,61.0,30.20,North,0,0.0,0.0,51,0.00,CLR,SCT,0.00,WeatherDisplay:10.37,2013-07-12 11:45:00,
2013-07-12 07:49:00,80.4,64.3,30.21,North,0,0.0,0.0,58,0.00,CLR,SCT,0.00,WeatherDisplay:10.37,2013-07-12 11:49:00,
2013-07-12 07:54:00,80.4,64.8,30.21,North,0,0.0,0.0,59,0.00,CLR,SCT,0.00,WeatherDisplay:10.37,2013-07-12 11:54:00,
2013-07-12 07:59:00,80.6,64.0,30.22,North,0,0.0,0.0,57,0.00,CLR,SCT,0.00,WeatherDisplay:10.37,2013-07-12 11:59:00,
2013-07-12 08:00:00,80.8,61.0,30.20,North,0,0.0,0.0,51,0.00,CLR,SCT,0.00,WeatherDisplay:10.37,2013-07-12 12:00:00,
2013-07-12 08:04:00,80.8,64.1,30.22,North,0,0.0,0.0,57,0.00,CLR,SCT,0.00,WeatherDisplay:10.37,2013-07-12 12:04:00,
2013-07-12 08:09:00,81.1,64.0,30.22,North,0,0.0,0.0,56,0.00,CLR,SCT,0.00,WeatherDisplay:10.37,2013-07-12 12:09:00,
2013-07-12 08:15:00,81.3,64.1,30.22,North,0,0.0,0.0,56,0.00,CLR,SCT,0.00,WeatherDisplay:10.37,2013-07-12 12:15:00,
2013-07-12 08:20:00,81.5,64.3,30.22,North,0,0.0,0.0,56,0.00,CLR,SCT,0.00,WeatherDisplay:10.37,2013-07-12 12:20:00,
2013-07-12 08:25:00,81.7,64.5,30.22,North,0,0.0,0.0,56,0.00,CLR,SCT,0.00,WeatherDisplay:10.37,2013-07-12 12:25:00,
2013-07-12 08:30:00,81.9,64.1,30.22,North,0,0.0,0.0,55,0.00,CLR,SCT,0.00,WeatherDisplay:10.37,2013-07-12 12:30:00,
2013-07-12 08:35:00,81.9,64.6,30.25,North,0,0.0,0.0,56,0.00,CLR,SCT,0.00,WeatherDisplay:10.37,2013-07-12 12:35:00,
2013-07-12 08:40:00,81.9,64.6,30.25,North,0,0.0,0.0,56,0.00,CLR,SCT,0.00,WeatherDisplay:10.37,2013-07-12 12:40:00,
2013-07-12 08:45:00,82.0,64.3,30.25,North,0,0.0,0.0,55,0.00,CLR,SCT,0.00,WeatherDisplay:10.37,2013-07-12 12:45:00,
2013-07-12 08:50:00,82.2,63.4,30.25,North,0,0.0,0.0,53,0.00,CLR,SCT,0.00,WeatherDisplay:10.37,2013-07-12 12:50:00,
2013-07-12 08:55:00,82.4,63.0,30.25,North,0,0.0,0.0,52,0.00,CLR,SCT,0.00,WeatherDisplay:10.37,2013-07-12 12:55:00,
2013-07-12 09:00:00,82.4,63.5,30.25,North,0,0.0,0.0,53,0.00,CLR,SCT,0.00,WeatherDisplay:10.37,2013-07-12 13:00:00,
2013-07-12 09:06:00,82.6,63.2,30.25,North,0,0.0,0.0,52,0.00,CLR,SCT,0.00,WeatherDisplay:10.37,2013-07-12 13:06:00,
2013-07-12 09:11:00,82.6,62.6,30.25,North,0,0.0,0.0,51,0.00,CLR,SCT,0.00,WeatherDisplay:10.37,2013-07-12 13:11:00,
2013-07-12 09:15:00,80.1,62.4,30.21,North,0,0.0,0.0,55,0.00,CLR,SCT,0.00,WeatherDisplay:10.37,2013-07-12 13:15:00,
2013-07-12 09:16:00,82.8,63.3,30.24,North,0,0.0,0.0,52,0.00,CLR,SCT,0.00,WeatherDisplay:10.37,2013-07-12 13:16:00,
2013-07-12 09:22:00,82.8,63.3,30.24,North,0,0.0,0.0,52,0.00,CLR,SCT,0.00,WeatherDisplay:10.37,2013-07-12 13:22:00,
2013-07-12 09:27:00,83.1,64.2,30.24,North,0,0.0,0.0,53,0.00,CLR,SCT,0.00,WeatherDisplay:10.37,2013-07-12 13:27:00,
2013-07-12 09:30:00,80.1,62.4,30.21,North,0,0.0,0.0,55,0.00,CLR,SCT,0.00,WeatherDisplay:10.37,2013-07-12 13:30:00,
2013-07-12 09:32:00,83.1,64.2,30.24,North,0,0.0,0.0,53,0.00,CLR,SCT,0.00,WeatherDisplay:10.37,2013-07-12 13:32:00,
2013-07-12 09:37:00,83.1,63.7,30.25,North,0,0.0,0.0,52,0.00,CLR,SCT,0.00,WeatherDisplay:10.37,2013-07-12 13:37:00,
2013-07-12 09:42:00,83.1,63.7,30.25,North,0,0.0,0.0,52,0.00,CLR,SCT,0.00,WeatherDisplay:10.37,2013-07-12 13:42:00,
2013-07-12 09:45:00,79.7,64.1,30.22,North,0,0.0,0.0,59,0.00,CLR,SCT,0.00,WeatherDisplay:10.37,2013-07-12 13:45:00,
2013-07-12 09:47:00,83.3,63.3,30.25,North,0,0.0,0.0,51,0.00,CLR,SCT,0.00,WeatherDisplay:10.37,2013-07-12 13:47:00,
2013-07-12 09:52:00,83.5,62.9,30.25,North,0,0.0,0.0,50,0.00,CLR,SCT,0.00,WeatherDisplay:10.37,2013-07-12 13:52:00,
2013-07-12 09:57:00,84.0,63.4,30.26,North,0,0.0,0.0,50,0.00,CLR,SCT,0.00,WeatherDisplay:10.37,2013-07-12 13:57:00,
2013-07-12 10:00:00,79.7,64.1,30.22,North,0,0.0,0.0,59,0.00,CLR,SCT,0.00,WeatherDisplay:10.37,2013-07-12 14:00:00,
2013-07-12 10:02:00,84.0,62.8,30.26,North,0,0.0,0.0,49,0.00,CLR,SCT,0.00,WeatherDisplay:10.37,2013-07-12 14:02:00,
2013-07-12 10:07:00,84.4,63.1,30.26,North,0,0.0,0.0,49,0.00,CLR,SCT,0.00,WeatherDisplay:10.37,2013-07-12 14:07:00,
2013-07-12 10:12:00,84.6,62.1,30.26,North,0,0.0,0.0,47,0.00,CLR,SCT,0.00,WeatherDisplay:10.37,2013-07-12 14:12:00,
2013-07-12 10:15:00,79.7,64.1,30.22,North,0,0.0,0.0,59,0.00,CLR,SCT,0.00,WeatherDisplay:10.37,2013-07-12 14:15:00,
2013-07-12 10:17:00,84.7,61.7,30.27,North,0,0.0,0.0,46,0.00,CLR,SCT,0.00,WeatherDisplay:10.37,2013-07-12 14:17:00,
2013-07-12 10:22:00,85.5,61.1,30.27,North,0,0.0,0.0,44,0.00,CLR,SCT,0.00,WeatherDisplay:10.37,2013-07-12 14:22:00,
2013-07-12 10:28:00,85.8,62.0,30.27,North,0,0.0,0.0,45,0.00,CLR,SCT,0.00,WeatherDisplay:10.37,2013-07-12 14:28:00,
2013-07-12 10:30:00,79.7,64.1,30.22,North,0,0.0,0.0,59,0.00,CLR,SCT,0.00,WeatherDisplay:10.37,2013-07-12 14:30:00,
2013-07-12 10:33:00,86.2,61.7,30.27,North,0,0.0,0.0,44,0.00,CLR,SCT,0.00,WeatherDisplay:10.37,2013-07-12 14:33:00,
2013-07-12 10:38:00,85.8,62.0,30.27,North,0,0.0,0.0,45,0.00,CLR,SCT,0.00,WeatherDisplay:10.37,2013-07-12 14:38:00,
2013-07-12 10:43:00,84.2,62.4,30.27,North,0,0.0,0.0,48,0.00,CLR,SCT,0.00,WeatherDisplay:10.37,2013-07-12 14:43:00,
2013-07-12 10:45:00,79.3,65.2,30.22,North,0,0.0,0.0,62,0.00,CLR,SCT,0.00,WeatherDisplay:10.37,2013-07-12 14:45:00,
2013-07-12 10:48:00,81.9,66.1,30.27,North,0,0.0,0.0,59,0.00,CLR,SCT,0.00,WeatherDisplay:10.37,2013-07-12 14:48:00,
2013-07-12 10:53:00,79.5,67.2,30.27,North,0,0.0,0.0,66,0.00,CLR,SCT,0.00,WeatherDisplay:10.37,2013-07-12 14:53:00,
2013-07-12 10:58:00,78.6,68.4,30.26,North,0,0.0,0.0,71,0.00,CLR,SCT,0.00,WeatherDisplay:10.37,2013-07-12 14:58:00,
2013-07-12 11:00:00,79.3,65.2,30.22,North,0,0.0,0.0,62,0.00,CLR,SCT,0.00,WeatherDisplay:10.37,2013-07-12 15:00:00,
2013-07-12 11:03:00,78.1,68.7,30.26,North,0,0.0,0.0,73,0.00,CLR,SCT,0.00,WeatherDisplay:10.37,2013-07-12 15:03:00,
2013-07-12 11:08:00,77.2,68.2,30.26,North,0,0.0,0.0,74,0.00,CLR,SCT,0.00,WeatherDisplay:10.37,2013-07-12 15:08:00,
2013-07-12 11:13:00,76.1,67.6,30.26,North,0,0.0,0.0,75,0.00,CLR,SCT,0.00,WeatherDisplay:10.37,2013-07-12 15:13:00,
2013-07-12 11:15:00,79.3,65.2,30.22,North,0,0.0,0.0,62,0.00,CLR,SCT,0.00,WeatherDisplay:10.37,2013-07-12 15:15:00,
2013-07-12 11:19:00,76.3,68.5,30.26,North,0,0.0,0.0,77,0.00,CLR,SCT,0.00,WeatherDisplay:10.37,2013-07-12 15:19:00,
2013-07-12 11:24:00,75.9,68.2,30.26,North,0,0.0,0.0,77,0.00,CLR,SCT,0.00,WeatherDisplay:10.37,2013-07-12 15:24:00,
2013-07-12 11:29:00,76.3,69.3,30.26,North,0,0.0,0.0,79,0.00,CLR,SCT,0.00,WeatherDisplay:10.37,2013-07-12 15:29:00,
2013-07-12 11:30:00,79.3,65.2,30.22,North,0,0.0,0.0,62,0.00,CLR,SCT,0.00,WeatherDisplay:10.37,2013-07-12 15:30:00,
2013-07-12 11:34:00,76.5,69.5,30.26,North,0,0.0,0.0,79,0.00,CLR,SCT,0.00,WeatherDisplay:10.37,2013-07-12 15:34:00,
2013-07-12 11:39:00,76.8,69.8,30.26,North,0,0.0,0.0,79,0.00,CLR,SCT,0.00,WeatherDisplay:10.37,2013-07-12 15:39:00,
2013-07-12 11:44:00,77.2,70.2,30.26,North,0,0.0,0.0,79,0.00,CLR,SCT,0.00,WeatherDisplay:10.37,2013-07-12 15:44:00,
2013-07-12 11:45:00,79.7,64.6,30.23,North,0,0.0,0.0,60,0.00,CLR,SCT,0.00,WeatherDisplay:10.37,2013-07-12 15:45:00,
2013-07-12 11:49:00,76.5,69.5,30.26,North,0,0.0,0.0,79,0.00,CLR,SCT,0.00,WeatherDisplay:10.37,2013-07-12 15:49:00,
2013-07-12 11:55:00,76.3,69.3,30.26,North,0,0.0,0.0,79,0.00,CLR,SCT,0.00,WeatherDisplay:10.37,2013-07-12 15:55:00,
2013-07-12 12:00:00,75.5,68.5,30.26,North,0,0.0,0.0,79,0.00,CLR,SCT,0.00,WeatherDisplay:10.37,2013-07-12 16:00:00,
2013-07-12 12:05:00,75.6,68.6,30.26,North,0,0.0,0.0,79,0.00,CLR,SCT,0.00,WeatherDisplay:10.37,2013-07-12 16:05:00,
2013-07-12 12:13:00,75.7,69.1,30.26,North,0,0.0,0.0,80,0.00,CLR,SCT,0.00,WeatherDisplay:10.37,2013-07-12 16:13:00,
2013-07-12 12:15:00,79.7,64.6,30.23,North,0,0.0,0.0,60,0.00,CLR,SCT,0.00,WeatherDisplay:10.37,2013-07-12 16:15:00,
2013-07-12 12:18:00,75.9,69.3,30.24,North,0,0.0,0.0,80,0.00,CLR,SCT,0.00,WeatherDisplay:10.37,2013-07-12 16:18:00,
2013-07-12 12:23:00,76.3,69.7,30.24,North,0,0.0,0.0,80,0.00,CLR,SCT,0.00,WeatherDisplay:10.37,2013-07-12 16:23:00,
2013-07-12 12:28:00,76.5,69.8,30.24,North,0,0.0,0.0,80,0.00,CLR,SCT,0.00,WeatherDisplay:10.37,2013-07-12 16:28:00,
2013-07-12 12:30:00,79.7,64.6,30.23,North,0,0.0,0.0,60,0.00,CLR,SCT,0.00,WeatherDisplay:10.37,2013-07-12 16:30:00,
2013-07-12 12:33:00,76.8,70.2,30.24,North,0,0.0,0.0,80,0.00,CLR,SCT,0.00,WeatherDisplay:10.37,2013-07-12 16:33:00,
2013-07-12 12:38:00,77.0,70.0,30.24,North,0,0.0,0.0,79,0.00,CLR,SCT,0.00,WeatherDisplay:10.37,2013-07-12 16:38:00,
2013-07-12 12:43:00,77.2,70.2,30.24,North,0,0.0,0.0,79,0.00,CLR,SCT,0.00,WeatherDisplay:10.37,2013-07-12 16:43:00,
2013-07-12 12:45:00,79.2,65.5,30.23,North,0,0.0,0.0,63,0.00,CLR,SCT,0.00,WeatherDisplay:10.37,2013-07-12 16:45:00,
2013-07-12 12:48:00,77.4,70.0,30.24,North,0,0.0,0.0,78,0.00,CLR,SCT,0.00,WeatherDisplay:10.37,2013-07-12 16:48:00,
2013-07-12 12:53:00,77.5,70.1,30.24,North,0,0.0,0.0,78,0.00,CLR,SCT,0.00,WeatherDisplay:10.37,2013-07-12 16:53:00,
2013-07-12 12:58:00,77.9,70.5,30.23,North,0,0.0,0.0,78,0.00,CLR,SCT,0.00,WeatherDisplay:10.37,2013-07-12 16:58:00,
2013-07-12 13:00:00,79.2,65.5,30.23,North,0,0.0,0.0,63,0.00,CLR,SCT,0.00,WeatherDisplay:10.37,2013-07-12 17:00:00,
2013-07-12 13:04:00,78.1,70.7,30.23,North,0,0.0,0.0,78,0.00,CLR,SCT,0.00,WeatherDisplay:10.37,2013-07-12 17:04:00,
2013-07-12 13:09:00,78.6,70.8,30.23,North,0,0.0,0.0,77,0.00,CLR,SCT,0.00,WeatherDisplay:10.37,2013-07-12 17:09:00,
2013-07-12 13:14:00,79.0,70.8,30.23,North,0,0.0,0.0,76,0.00,CLR,SCT,0.00,WeatherDisplay:10.37,2013-07-12 17:14:00,
2013-07-12 13:15:00,79.2,65.5,30.23,North,0,0.0,0.0,63,0.00,CLR,SCT,0.00,WeatherDisplay:10.37,2013-07-12 17:15:00,
2013-07-12 13:19:00,79.3,71.1,30.23,North,0,0.0,0.0,76,0.00,CLR,SCT,0.00,WeatherDisplay:10.37,2013-07-12 17:19:00,
2013-07-12 13:24:00,79.3,70.7,30.23,North,0,0.0,0.0,75,0.00,CLR,SCT,0.00,WeatherDisplay:10.37,2013-07-12 17:24:00,
2013-07-12 13:29:00,79.7,70.7,30.23,North,0,0.0,0.0,74,0.00,CLR,SCT,0.00,WeatherDisplay:10.37,2013-07-12 17:29:00,
2013-07-12 13:30:00,79.2,65.5,30.23,North,0,0.0,0.0,63,0.00,CLR,SCT,0.00,WeatherDisplay:10.37,2013-07-12 17:30:00,
2013-07-12 13:34:00,80.2,70.8,30.23,North,0,0.0,0.0,73,0.00,CLR,SCT,0.00,WeatherDisplay:10.37,2013-07-12 17:34:00,
2013-07-12 13:39:00,80.6,70.7,30.23,North,0,0.0,0.0,72,0.00,CLR,SCT,0.00,WeatherDisplay:10.37,2013-07-12 17:39:00,
2013-07-12 13:44:00,80.8,70.5,30.23,North,0,0.0,0.0,71,0.00,CLR,SCT,0.00,WeatherDisplay:10.37,2013-07-12 17:44:00,
2013-07-12 13:45:00,77.2,63.2,30.23,North,0,0.0,0.0,62,0.00,CLR,SCT,0.00,WeatherDisplay:10.37,2013-07-12 17:45:00,
2013-07-12 13:50:00,81.3,70.6,30.23,North,0,0.0,0.0,70,0.00,CLR,SCT,0.00,WeatherDisplay:10.37,2013-07-12 17:50:00,
2013-07-12 13:55:00,81.7,70.9,30.23,North,0,0.0,0.0,70,0.00,CLR,SCT,0.00,WeatherDisplay:10.37,2013-07-12 17:55:00,
2013-07-12 14:00:00,82.0,70.9,30.26,North,0,0.0,0.0,69,0.00,CLR,SCT,0.00,WeatherDisplay:10.37,2013-07-12 18:00:00,
2013-07-12 14:05:00,82.6,70.5,30.26,North,0,0.0,0.0,67,0.00,CLR,SCT,0.00,WeatherDisplay:10.37,2013-07-12 18:05:00,
2013-07-12 14:10:00,82.4,69.9,30.26,North,0,0.0,0.0,66,0.00,CLR,SCT,0.00,WeatherDisplay:10.37,2013-07-12 18:10:00,
2013-07-12 14:15:00,81.9,68.0,30.24,North,0,0.0,0.0,63,0.00,CLR,SCT,0.00,WeatherDisplay:10.37,2013-07-12 18:15:00,
2013-07-12 14:20:00,81.3,66.6,30.24,North,0,0.0,0.0,61,0.00,CLR,SCT,0.00,WeatherDisplay:10.37,2013-07-12 18:20:00,
2013-07-12 14:26:00,81.1,66.9,30.24,North,0,0.0,0.0,62,0.00,CLR,SCT,0.00,WeatherDisplay:10.37,2013-07-12 18:26:00,
2013-07-12 14:30:00,77.2,63.2,30.23,North,0,0.0,0.0,62,0.00,CLR,SCT,0.00,WeatherDisplay:10.37,2013-07-12 18:30:00,
2013-07-12 14:31:00,81.1,66.4,30.24,North,0,0.0,0.0,61,0.00,CLR,SCT,0.00,WeatherDisplay:10.37,2013-07-12 18:31:00,
2013-07-12 14:36:00,81.0,66.7,30.24,North,0,0.0,0.0,62,0.00,CLR,SCT,0.00,WeatherDisplay:10.37,2013-07-12 18:36:00,
2013-07-12 14:42:00,81.1,67.3,30.24,North,0,0.0,0.0,63,0.00,CLR,SCT,0.00,WeatherDisplay:10.37,2013-07-12 18:42:00,
2013-07-12 14:45:00,76.8,65.9,30.21,North,0,0.0,0.0,69,0.00,CLR,SCT,0.00,WeatherDisplay:10.37,2013-07-12 18:45:00,
2013-07-12 14:47:00,81.1,67.3,30.24,North,0,0.0,0.0,63,0.00,CLR,SCT,0.00,WeatherDisplay:10.37,2013-07-12 18:47:00,
2013-07-12 14:52:00,81.9,67.1,30.24,North,0,0.0,0.0,61,0.00,CLR,SCT,0.00,WeatherDisplay:10.37,2013-07-12 18:52:00,
2013-07-12 14:58:00,82.4,67.6,30.23,North,0,0.0,0.0,61,0.00,CLR,SCT,0.00,WeatherDisplay:10.37,2013-07-12 18:58:00,
2013-07-12 15:00:00,76.8,65.9,30.21,North,0,0.0,0.0,69,0.00,CLR,SCT,0.00,WeatherDisplay:10.37,2013-07-12 19:00:00,
2013-07-12 15:03:00,82.9,66.6,30.23,North,0,0.0,0.0,58,0.00,CLR,SCT,0.00,WeatherDisplay:10.37,2013-07-12 19:03:00,
2013-07-12 15:08:00,82.9,64.0,30.23,North,0,0.0,0.0,53,0.00,CLR,SCT,0.00,WeatherDisplay:10.37,2013-07-12 19:08:00,
2013-07-12 15:14:00,83.1,61.4,30.23,North,0,0.0,0.0,48,0.00,CLR,SCT,0.00,WeatherDisplay:10.37,2013-07-12 19:14:00,
2013-07-12 15:15:00,76.8,65.9,30.21,North,0,0.0,0.0,69,0.00,CLR,SCT,0.00,WeatherDisplay:10.37,2013-07-12 19:15:00,
2013-07-12 15:20:00,83.3,62.1,30.23,North,0,0.0,0.0,49,0.00,CLR,SCT,0.00,WeatherDisplay:10.37,2013-07-12 19:20:00,
2013-07-12 15:25:00,83.8,63.2,30.23,North,0,0.0,0.0,50,0.00,CLR,SCT,0.00,WeatherDisplay:10.37,2013-07-12 19:25:00,
2013-07-12 15:30:00,76.8,65.9,30.21,North,0,0.0,0.0,69,0.00,CLR,SCT,0.00,WeatherDisplay:10.37,2013-07-12 19:30:00,
2013-07-12 15:31:00,84.4,63.1,30.23,North,0,0.0,0.0,49,0.00,CLR,SCT,0.00,WeatherDisplay:10.37,2013-07-12 19:31:00,
2013-07-12 15:37:00,84.7,63.5,30.22,North,0,0.0,0.0,49,0.00,CLR,SCT,0.00,WeatherDisplay:10.37,2013-07-12 19:37:00,
2013-07-12 15:42:00,85.3,64.0,30.22,North,0,0.0,0.0,49,0.00,CLR,SCT,0.00,WeatherDisplay:10.37,2013-07-12 19:42:00,
2013-07-12 15:45:00,76.6,65.7,30.20,North,0,0.0,0.0,69,0.00,CLR,SCT,0.00,WeatherDisplay:10.37,2013-07-12 19:45:00,
2013-07-12 15:47:00,85.6,63.7,30.22,North,0,0.0,0.0,48,0.00,CLR,SCT,0.00,WeatherDisplay:10.37,2013-07-12 19:47:00,
2013-07-12 15:53:00,86.0,62.8,30.22,North,0,0.0,0.0,46,0.00,CLR,SCT,0.00,WeatherDisplay:10.37,2013-07-12 19:53:00,
2013-07-12 15:58:00,86.5,63.9,30.23,North,0,0.0,0.0,47,0.00,CLR,SCT,0.00,WeatherDisplay:10.37,2013-07-12 19:58:00,
2013-07-12 16:00:00,76.6,65.7,30.20,North,0,0.0,0.0,69,0.00,CLR,SCT,0.00,WeatherDisplay:10.37,2013-07-12 20:00:00,
2013-07-12 16:03:00,86.7,63.5,30.23,North,0,0.0,0.0,46,0.00,CLR,SCT,0.00,WeatherDisplay:10.37,2013-07-12 20:03:00,
2013-07-12 16:08:00,86.7,62.8,30.23,North,0,0.0,0.0,45,0.00,CLR,SCT,0.00,WeatherDisplay:10.37,2013-07-12 20:08:00,
2013-07-12 16:13:00,87.1,62.5,30.23,North,0,0.0,0.0,44,0.00,CLR,SCT,0.00,WeatherDisplay:10.37,2013-07-12 20:13:00,
2013-07-12 16:15:00,76.6,65.7,30.20,North,0,0.0,0.0,69,0.00,CLR,SCT,0.00,WeatherDisplay:10.37,2013-07-12 20:15:00,
2013-07-12 16:19:00,87.1,62.5,30.23,North,0,0.0,0.0,44,0.00,CLR,SCT,0.00,WeatherDisplay:10.37,2013-07-12 20:19:00,
2013-07-12 16:25:00,87.8,63.2,30.23,North,0,0.0,0.0,44,0.00,CLR,SCT,0.00,WeatherDisplay:10.37,2013-07-12 20:25:00,
2013-07-12 16:30:00,76.6,65.7,30.20,North,0,0.0,0.0,69,0.00,CLR,SCT,0.00,WeatherDisplay:10.37,2013-07-12 20:30:00,
2013-07-12 16:31:00,88.2,62.8,30.23,North,0,0.0,0.0,43,0.00,CLR,SCT,0.00,WeatherDisplay:10.37,2013-07-12 20:31:00,
2013-07-12 16:36:00,88.3,63.0,30.22,North,0,0.0,0.0,43,0.00,CLR,SCT,0.00,WeatherDisplay:10.37,2013-07-12 20:36:00,
2013-07-12 16:41:00,88.7,63.3,30.22,North,0,0.0,0.0,43,0.00,CLR,SCT,0.00,WeatherDisplay:10.37,2013-07-12 20:41:00,
2013-07-12 16:45:00,76.6,66.1,30.19,North,0,0.0,0.0,70,0.00,CLR,SCT,0.00,WeatherDisplay:10.37,2013-07-12 20:45:00,
2013-07-12 16:47:00,88.5,62.5,30.22,North,0,0.0,0.0,42,0.00,CLR,SCT,0.00,WeatherDisplay:10.37,2013-07-12 20:47:00,
2013-07-12 16:52:00,88.5,62.5,30.22,North,0,0.0,0.0,42,0.00,CLR,SCT,0.00,WeatherDisplay:10.37,2013-07-12 20:52:00,
2013-07-12 16:58:00,88.7,62.7,30.22,North,0,0.0,0.0,42,0.00,CLR,SCT,0.00,WeatherDisplay:10.37,2013-07-12 20:58:00,
2013-07-12 17:00:00,76.6,66.1,30.19,North,0,0.0,0.0,70,0.00,CLR,SCT,0.00,WeatherDisplay:10.37,2013-07-12 21:00:00,
2013-07-12 17:03:00,87.8,61.9,30.22,North,0,0.0,0.0,42,0.00,CLR,SCT,0.00,WeatherDisplay:10.37,2013-07-12 21:03:00,
2013-07-12 17:08:00,87.1,62.5,30.22,North,0,0.0,0.0,44,0.00,CLR,SCT,0.00,WeatherDisplay:10.37,2013-07-12 21:08:00,
2013-07-12 17:14:00,86.0,61.5,30.22,North,0,0.0,0.0,44,0.00,CLR,SCT,0.00,WeatherDisplay:10.37,2013-07-12 21:14:00,
2013-07-12 17:15:00,76.6,66.1,30.19,North,0,0.0,0.0,70,0.00,CLR,SCT,0.00,WeatherDisplay:10.37,2013-07-12 21:15:00,
2013-07-12 17:19:00,84.0,60.4,30.21,North,0,0.0,0.0,45,0.00,CLR,SCT,0.00,WeatherDisplay:10.37,2013-07-12 21:19:00,
2013-07-12 17:25:00,83.3,59.1,30.21,North,0,0.0,0.0,44,0.00,CLR,SCT,0.00,WeatherDisplay:10.37,2013-07-12 21:25:00,
2013-07-12 17:30:00,76.6,66.1,30.19,North,0,0.0,0.0,70,0.00,CLR,SCT,0.00,WeatherDisplay:10.37,2013-07-12 21:30:00,
2013-07-12 17:31:00,82.8,58.6,30.21,North,0,0.0,0.0,44,0.00,CLR,SCT,0.00,WeatherDisplay:10.37,2013-07-12 21:31:00,
2013-07-12 17:36:00,82.8,58.6,30.19,North,0,0.0,0.0,44,0.00,CLR,SCT,0.00,WeatherDisplay:10.37,2013-07-12 21:36:00,
2013-07-12 17:41:00,81.7,59.5,30.19,North,0,0.0,0.0,47,0.00,CLR,SCT,0.00,WeatherDisplay:10.37,2013-07-12 21:41:00,
2013-07-12 17:45:00,76.5,66.4,30.19,North,0,0.0,0.0,71,0.00,CLR,SCT,0.00,WeatherDisplay:10.37,2013-07-12 21:45:00,
2013-07-12 17:46:00,81.0,59.4,30.19,North,0,0.0,0.0,48,0.00,CLR,SCT,0.00,WeatherDisplay:10.37,2013-07-12 21:46:00,
2013-07-12 17:52:00,80.8,59.8,30.19,North,0,0.0,0.0,49,0.00,CLR,SCT,0.00,WeatherDisplay:10.37,2013-07-12 21:52:00,
2013-07-12 17:57:00,80.6,59.7,30.19,North,0,0.0,0.0,49,0.00,CLR,SCT,0.00,WeatherDisplay:10.37,2013-07-12 21:57:00,
2013-07-12 18:00:00,76.5,66.4,30.19,North,0,0.0,0.0,71,0.00,CLR,SCT,0.00,WeatherDisplay:10.37,2013-07-12 22:00:00,
2013-07-12 18:02:00,80.6,59.7,30.19,North,0,0.0,0.0,49,0.00,CLR,SCT,0.00,WeatherDisplay:10.37,2013-07-12 22:02:00,
2013-07-12 18:08:00,80.8,59.8,30.19,North,0,0.0,0.0,49,0.00,CLR,SCT,0.00,WeatherDisplay:10.37,2013-07-12 22:08:00,
2013-07-12 18:14:00,80.8,60.4,30.19,North,0,0.0,0.0,50,0.00,CLR,SCT,0.00,WeatherDisplay:10.37,2013-07-12 22:14:00,
2013-07-12 18:15:00,76.5,66.4,30.19,North,0,0.0,0.0,71,0.00,CLR,SCT,0.00,WeatherDisplay:10.37,2013-07-12 22:15:00,
2013-07-12 18:20:00,80.6,60.2,30.19,North,0,0.0,0.0,50,0.00,CLR,SCT,0.00,WeatherDisplay:10.37,2013-07-12 22:20:00,
2013-07-12 18:25:00,80.6,60.2,30.19,North,0,0.0,0.0,50,0.00,CLR,SCT,0.00,WeatherDisplay:10.37,2013-07-12 22:25:00,
2013-07-12 18:30:00,80.6,60.2,30.19,North,0,0.0,0.0,50,0.00,CLR,SCT,0.00,WeatherDisplay:10.37,2013-07-12 22:30:00,
2013-07-12 18:36:00,80.8,60.4,30.21,North,0,0.0,0.0,50,0.00,CLR,SCT,0.00,WeatherDisplay:10.37,2013-07-12 22:36:00,
2013-07-12 18:41:00,80.8,61.0,30.21,North,0,0.0,0.0,51,0.00,CLR,SCT,0.00,WeatherDisplay:10.37,2013-07-12 22:41:00,
2013-07-12 18:45:00,76.3,66.2,30.19,North,0,0.0,0.0,71,0.00,CLR,SCT,0.00,WeatherDisplay:10.37,2013-07-12 22:45:00,
2013-07-12 18:46:00,80.8,61.0,30.21,North,0,0.0,0.0,51,0.00,CLR,SCT,0.00,WeatherDisplay:10.37,2013-07-12 22:46:00,
2013-07-12 18:52:00,81.0,61.1,30.21,North,0,0.0,0.0,51,0.00,CLR,SCT,0.00,WeatherDisplay:10.37,2013-07-12 22:52:00,
2013-07-12 18:58:00,81.0,61.7,30.20,North,0,0.0,0.0,52,0.00,CLR,SCT,0.00,WeatherDisplay:10.37,2013-07-12 22:58:00,
2013-07-12 19:00:00,76.3,66.2,30.19,North,0,0.0,0.0,71,0.00,CLR,SCT,0.00,WeatherDisplay:10.37,2013-07-12 23:00:00,
2013-07-12 19:08:00,81.0,61.1,30.20,North,0,0.0,0.0,51,0.00,CLR,SCT,0.00,WeatherDisplay:10.37,2013-07-12 23:08:00,
2013-07-12 19:14:00,81.0,61.7,30.20,North,0,0.0,0.0,52,0.00,CLR,SCT,0.00,WeatherDisplay:10.37,2013-07-12 23:14:00,
2013-07-12 19:15:00,76.3,66.2,30.19,North,0,0.0,0.0,71,0.00,CLR,SCT,0.00,WeatherDisplay:10.37,2013-07-12 23:15:00,
2013-07-12 19:20:00,80.8,60.4,30.20,North,0,0.0,0.0,50,0.00,CLR,SCT,0.00,WeatherDisplay:10.37,2013-07-12 23:20:00,
2013-07-12 19:25:00,80.8,61.0,30.20,North,0,0.0,0.0,51,0.00,CLR,SCT,0.00,WeatherDisplay:10.37,2013-07-12 23:25:00,
2013-07-12 19:30:00,76.3,66.2,30.19,North,0,0.0,0.0,71,0.00,CLR,SCT,0.00,WeatherDisplay:10.37,2013-07-12 23:30:00,
2013-07-12 19:31:00,80.8,61.0,30.20,North,0,0.0,0.0,51,0.00,CLR,SCT,0.00,WeatherDisplay:10.37,2013-07-12 23:31:00,
2013-07-12 19:36:00,80.8,61.0,30.21,North,0,0.0,0.0,51,0.00,CLR,SCT,0.00,WeatherDisplay:10.37,2013-07-12 23:36:00,
2013-07-12 19:41:00,80.8,61.5,30.21,North,0,0.0,0.0,52,0.00,CLR,SCT,0.00,WeatherDisplay:10.37,2013-07-12 23:41:00,
2013-07-12 19:45:00,76.3,66.2,30.21,North,0,0.0,0.0,71,0.00,CLR,SCT,0.00,WeatherDisplay:10.37,2013-07-12 23:45:00,
2013-07-12 19:46:00,80.6,61.9,30.21,North,0,0.0,0.0,53,0.00,CLR,SCT,0.00,WeatherDisplay:10.37,2013-07-12 23:46:00,
2013-07-12 19:51:00,80.4,61.7,30.21,North,0,0.0,0.0,53,0.00,CLR,SCT,0.00,WeatherDisplay:10.37,2013-07-12 23:51:00,
2013-07-12 19:56:00,80.2,62.1,30.21,North,0,0.0,0.0,54,0.00,CLR,SCT,0.00,WeatherDisplay:10.37,2013-07-12 23:56:00,
2013-07-12 20:00:00,76.3,66.2,30.21,North,0,0.0,0.0,71,0.00,CLR,SCT,0.00,WeatherDisplay:10.37,2013-07-13 00:00:00,
2013-07-12 20:03:00,80.1,62.4,30.21,North,0,0.0,0.0,55,0.00,CLR,SCT,0.00,WeatherDisplay:10.37,2013-07-13 00:03:00,
2013-07-12 20:08:00,80.2,62.6,30.21,North,0,0.0,0.0,55,0.00,CLR,SCT,0.00,WeatherDisplay:10.37,2013-07-13 00:08:00,
2013-07-12 20:13:00,80.2,62.6,30.21,North,0,0.0,0.0,55,0.00,CLR,SCT,0.00,WeatherDisplay:10.37,2013-07-13 00:13:00,
2013-07-12 20:15:00,76.3,66.2,30.21,North,0,0.0,0.0,71,0.00,CLR,SCT,0.00,WeatherDisplay:10.37,2013-07-13 00:15:00,
2013-07-12 20:18:00,80.2,63.1,30.21,North,0,0.0,0.0,56,0.00,CLR,SCT,0.00,WeatherDisplay:10.37,2013-07-13 00:18:00,
2013-07-12 20:23:00,80.2,63.6,30.21,North,0,0.0,0.0,57,0.00,CLR,SCT,0.00,WeatherDisplay:10.37,2013-07-13 00:23:00,
2013-07-12 20:29:00,80.1,63.5,30.21,North,0,0.0,0.0,57,0.00,CLR,SCT,0.00,WeatherDisplay:10.37,2013-07-13 00:29:00,
2013-07-12 20:30:00,76.3,66.2,30.21,North,0,0.0,0.0,71,0.00,CLR,SCT,0.00,WeatherDisplay:10.37,2013-07-13 00:30:00,
2013-07-12 20:33:00,80.1,64.0,30.21,North,0,0.0,0.0,58,0.00,CLR,SCT,0.00,WeatherDisplay:10.37,2013-07-13 00:33:00,
2013-07-12 20:39:00,79.9,64.3,30.21,North,0,0.0,0.0,59,0.00,CLR,SCT,0.00,WeatherDisplay:10.37,2013-07-13 00:39:00,
2013-07-12 20:44:00,79.7,64.1,30.21,North,0,0.0,0.0,59,0.00,CLR,SCT,0.00,WeatherDisplay:10.37,2013-07-13 00:44:00,
2013-07-12 20:45:00,76.8,65.9,30.22,North,0,0.0,0.0,69,0.00,CLR,SCT,0.00,WeatherDisplay:10.37,2013-07-13 00:45:00,
2013-07-12 20:49:00,79.7,64.1,30.21,North,0,0.0,0.0,59,0.00,CLR,SCT,0.00,WeatherDisplay:10.37,2013-07-13 00:49:00,
2013-07-12 20:54:00,79.7,64.1,30.21,North,0,0.0,0.0,59,0.00,CLR,SCT,0.00,WeatherDisplay:10.37,2013-07-13 00:54:00,
2013-07-12 21:00:00,79.7,64.1,30.22,North,0,0.0,0.0,59,0.00,CLR,SCT,0.00,WeatherDisplay:10.37,2013-07-13 01:00:00,
2013-07-12 21:05:00,79.7,64.1,30.22,North,0,0.0,0.0,59,0.00,CLR,SCT,0.00,WeatherDisplay:10.37,2013-07-13 01:05:00,
2013-07-12 21:10:00,79.7,64.6,30.22,North,0,0.0,0.0,60,0.00,CLR,SCT,0.00,WeatherDisplay:10.37,2013-07-13 01:10:00,
2013-07-12 21:15:00,76.8,65.9,30.22,North,0,0.0,0.0,69,0.00,CLR,SCT,0.00,WeatherDisplay:10.37,2013-07-13 01:15:00,
2013-07-12 21:17:00,79.5,64.4,30.22,North,0,0.0,0.0,60,0.00,CLR,SCT,0.00,WeatherDisplay:10.37,2013-07-13 01:17:00,
2013-07-12 21:22:00,79.5,64.4,30.22,North,0,0.0,0.0,60,0.00,CLR,SCT,0.00,WeatherDisplay:10.37,2013-07-13 01:22:00,
2013-07-12 21:27:00,79.3,64.2,30.22,North,0,0.0,0.0,60,0.00,CLR,SCT,0.00,WeatherDisplay:10.37,2013-07-13 01:27:00,
2013-07-12 21:30:00,76.8,65.9,30.22,North,0,0.0,0.0,69,0.00,CLR,SCT,0.00,WeatherDisplay:10.37,2013-07-13 01:30:00,
2013-07-12 21:33:00,79.5,64.9,30.22,North,0,0.0,0.0,61,0.00,CLR,SCT,0.00,WeatherDisplay:10.37,2013-07-13 01:33:00,
2013-07-12 21:38:00,79.5,64.4,30.22,North,0,0.0,0.0,60,0.00,CLR,SCT,0.00,WeatherDisplay:10.37,2013-07-13 01:38:00,
2013-07-12 21:43:00,79.3,64.2,30.22,North,0,0.0,0.0,60,0.00,CLR,SCT,0.00,WeatherDisplay:10.37,2013-07-13 01:43:00,
2013-07-12 21:50:00,79.3,64.7,30.22,North,0,0.0,0.0,61,0.00,CLR,SCT,0.00,WeatherDisplay:10.37,2013-07-13 01:50:00,
2013-07-12 21:55:00,79.3,64.7,30.22,North,0,0.0,0.0,61,0.00,CLR,SCT,0.00,WeatherDisplay:10.37,2013-07-13 01:55:00,
2013-07-12 22:00:00,79.3,65.2,30.22,North,0,0.0,0.0,62,0.00,CLR,SCT,0.00,WeatherDisplay:10.37,2013-07-13 02:00:00,
2013-07-12 22:05:00,79.2,65.0,30.22,North,0,0.0,0.0,62,0.00,CLR,SCT,0.00,WeatherDisplay:10.37,2013-07-13 02:05:00,
2013-07-12 22:11:00,79.3,65.6,30.22,North,0,0.0,0.0,63,0.00,CLR,SCT,0.00,WeatherDisplay:10.37,2013-07-13 02:11:00,
2013-07-12 22:16:00,79.3,65.2,30.23,North,0,0.0,0.0,62,0.00,CLR,SCT,0.00,WeatherDisplay:10.37,2013-07-13 02:16:00,
2013-07-12 22:21:00,79.5,64.9,30.23,North,0,0.0,0.0,61,0.00,CLR,SCT,0.00,WeatherDisplay:10.37,2013-07-13 02:21:00,
2013-07-12 22:27:00,79.5,64.4,30.23,North,0,0.0,0.0,60,0.00,CLR,SCT,0.00,WeatherDisplay:10.37,2013-07-13 02:27:00,
2013-07-12 22:32:00,79.7,64.6,30.23,North,0,0.0,0.0,60,0.00,CLR,SCT,0.00,WeatherDisplay:10.37,2013-07-13 02:32:00,
2013-07-12 22:37:00,79.7,65.1,30.23,North,0,0.0,0.0,61,0.00,CLR,SCT,0.00,WeatherDisplay:10.37,2013-07-13 02:37:00,
2013-07-12 22:42:00,79.7,65.1,30.23,North,0,0.0,0.0,61,0.00,CLR,SCT,0.00,WeatherDisplay:10.37,2013-07-13 02:42:00,
2013-07-12 22:48:00,79.5,65.4,30.23,North,0,0.0,0.0,62,0.00,CLR,SCT,0.00,WeatherDisplay:10.37,2013-07-13 02:48:00,
2013-07-12 22:53:00,79.5,64.9,30.23,North,0,0.0,0.0,61,0.00,CLR,SCT,0.00,WeatherDisplay:10.37,2013-07-13 02:53:00,
2013-07-12 22:58:00,79.7,64.6,30.23,North,0,0.0,0.0,60,0.00,CLR,SCT,0.00,WeatherDisplay:10.37,2013-07-13 02:58:00,
2013-07-12 23:03:00,79.7,64.6,30.23,North,0,0.0,0.0,60,0.00,CLR,SCT,0.00,WeatherDisplay:10.37,2013-07-13 03:03:00,
2013-07-12 23:09:00,79.7,64.6,30.23,North,0,0.0,0.0,60,0.00,CLR,SCT,0.00,WeatherDisplay:10.37,2013-07-13 03:09:00,
2013-07-12 23:14:00,79.7,64.6,30.23,North,0,0.0,0.0,60,0.00,CLR,SCT,0.00,WeatherDisplay:10.37,2013-07-13 03:14:00,
2013-07-12 23:20:00,79.5,64.4,30.23,North,0,0.0,0.0,60,0.00,CLR,SCT,0.00,WeatherDisplay:10.37,2013-07-13 03:20:00,
2013-07-12 23:25:00,79.5,64.9,30.23,North,0,0.0,0.0,61,0.00,CLR,SCT,0.00,WeatherDisplay:10.37,2013-07-13 03:25:00,
2013-07-12 23:30:00,79.3,64.7,30.23,North,0,0.0,0.0,61,0.00,CLR,SCT,0.00,WeatherDisplay:10.37,2013-07-13 03:30:00,
2013-07-12 23:35:00,79.3,65.2,30.23,North,0,0.0,0.0,62,0.00,CLR,SCT,0.00,WeatherDisplay:10.37,2013-07-13 03:35:00,
2013-07-12 23:40:00,79.3,65.2,30.23,North,0,0.0,0.0,62,0.00,CLR,SCT,0.00,WeatherDisplay:10.37,2013-07-13 03:40:00,
2013-07-12 23:46:00,79.2,65.5,30.23,North,0,0.0,0.0,63,0.00,CLR,SCT,0.00,WeatherDisplay:10.37,2013-07-13 03:46:00,
2013-07-12 23:51:00,79.2,65.5,30.23,North,0,0.0,0.0,63,0.00,CLR,SCT,0.00,WeatherDisplay:10.37,2013-07-13 03:51:00,
2013-07-12 23:57:00,79.2,65.5,30.23,North,0,0.0,0.0,63,0.00,CLR,SCT,0.00,WeatherDisplay:10.37,2013-07-13 03:57:00,